Flag for Austria Weather past 2 weeks in Güssing, Burgenland, Austria

Now
84 °F

Scattered clouds.


Feels Like: 84 °F
Forecast: 60 / 83 °F
Wind: 2 mph from South

Location: Murska Sobota

Current Time: Jul 2, 2015 at 3:09:08 PM

Latest Report: Jul 2, 2015 at 2:00 PM


Visibility: 13 mi

Pressure: 30.16 "Hg

Humidity: 43%

Dew point: 59 °F

Location of GüssingLocation

Historic Weather in Güssing — Graph

°F

Güssing temperature yesterday

Maximum temperature yesterday: 84 °F (at 4:00 PM)
Minimum temperature yesterday: 61 °F (at 3:00 AM)
Average temperature yesterday: 73 °F

Past Weeks' High & Low Weather Summary

 TemperatureHumidityPressure
High85 °F (Jul 2, 1:00 PM)99% (Jun 21, 4:00 AM)30.26 "Hg (Jun 21, 4:00 AM)
Low47 °F (Jun 18, 5:00 AM)39% (Jun 18, 3:00 PM)29.78 "Hg (Jun 23, 5:00 AM)
Average64 °F74%30.07 "Hg
* Reported Jun 17 1:00 PM — Jul 2 1:00 PM, Güssing, Weather by CustomWeather, © 2015

Note: Actual official high and low records may vary slightly from our data, if they occured in-between our weather recording intervals... More about our weather records

Advertising

Güssing weather history for previous 24 hours

 ConditionsComfort  
Time TempWeatherWind HumidityBarometerVisibility
1:00 PM
Thu, Jul 2
85 °FWarm.2 mph43%30.17 "HgN/A
12:00 PM83 °FWarm.2 mph47%30.18 "HgN/A
11:00 AM82 °FWarm.2 mph49%30.17 "HgN/A
9:00 AM76 °FMild.2 mph62%30.18 "HgN/A
8:00 AM72 °FScattered clouds.1 mph75%30.19 "Hg12 mi
7:00 AM65 °FScattered clouds.1 mph93%30.19 "Hg12 mi
6:00 AM62 °FMild.1 mph95%30.19 "HgN/A
5:00 AM63 °FMild.1 mph95%30.19 "HgN/A
4:00 AM62 °FMild.1 mph95%30.18 "HgN/A
3:00 AM62 °FCool.1 mph95%30.18 "HgN/A
2:00 AM64 °FMild.No wind91%30.19 "HgN/A
1:00 AM65 °FMild.1 mph91%30.18 "HgN/A
12:00 AM65 °FMild.No wind90%30.18 "HgN/A
11:00 PM
Wed, Jul 1
67 °FMild.1 mph86%30.18 "HgN/A
10:00 PM72 °FMild.1 mph74%30.16 "HgN/A
9:00 PM77 °FMild.1 mph60%30.14 "HgN/A
8:00 PM80 °FSunny.1 mph52%30.12 "Hg31 mi
7:00 PM83 °FWarm.1 mph48%30.11 "HgN/A
6:00 PM84 °FWarm.2 mph45%30.11 "HgN/A
5:00 PM84 °FWarm.3 mph43%30.12 "HgN/A
4:00 PM84 °FWarm.2 mph40%30.12 "HgN/A
3:00 PM83 °FScattered clouds.3 mph44%30.13 "Hg19 mi
Weather by CustomWeather, © 2015

See weather overviewHow to use our weather pages